TimeMST,TemperatureF,Dew PointF,Humidity,Sea Level PressureIn,VisibilityMPH,Wind Direction,Wind SpeedMPH,Gust SpeedMPH,PrecipitationIn,Events,Conditions,WindDirDegrees,DateUTC
12:51 AM,10.9,8.1,88,30.14,-9999.0,NNW,3.5,-,0.01,,Unknown,330,2012-12-09 07:51:00
1:51 AM,8.1,5.0,87,30.16,-9999.0,Calm,Calm,-,N/A,,Unknown,0,2012-12-09 08:51:00
2:51 AM,1.9,-0.9,88,30.21,-9999.0,Calm,Calm,-,N/A,,Unknown,0,2012-12-09 09:51:00
3:51 AM,-2.0,-6.0,83,30.26,-9999.0,Calm,Calm,-,N/A,,Unknown,0,2012-12-09 10:51:00
4:51 AM,-5.1,-8.0,87,30.30,-9999.0,Calm,Calm,-,N/A,,Unknown,0,2012-12-09 11:51:00
5:51 AM,-5.1,-9.0,83,30.33,-9999.0,Calm,Calm,-,N/A,,Unknown,0,2012-12-09 12:51:00
6:51 AM,-8.0,-11.9,83,30.37,-9999.0,Calm,Calm,-,N/A,,Unknown,0,2012-12-09 13:51:00
7:51 AM,-11.0,-14.1,86,30.43,-9999.0,Calm,Calm,-,N/A,,Unknown,0,2012-12-09 14:51:00
8:51 AM,-9.0,-14.1,79,30.47,-9999.0,Calm,Calm,-,N/A,,Unknown,0,2012-12-09 15:51:00
9:51 AM,-0.9,-5.1,83,30.47,-9999.0,ENE,3.5,-,N/A,,Unknown,60,2012-12-09 16:51:00
10:51 AM,7.0,1.9,80,30.41,-9999.0,Variable,3.5,-,N/A,,Unknown,0,2012-12-09 17:51:00
11:51 AM,10.9,3.9,73,30.38,-9999.0,East,4.6,-,N/A,,Unknown,100,2012-12-09 18:51:00
12:51 PM,14.0,6.1,71,30.33,-9999.0,East,3.5,-,N/A,,Unknown,90,2012-12-09 19:51:00
1:51 PM,12.9,6.1,74,30.36,-9999.0,North,4.6,-,N/A,,Unknown,350,2012-12-09 20:51:00
2:51 PM,14.0,6.1,71,30.37,-9999.0,Calm,Calm,-,N/A,,Unknown,0,2012-12-09 21:51:00
3:51 PM,14.0,5.0,67,30.40,-9999.0,Calm,Calm,-,N/A,,Unknown,0,2012-12-09 22:51:00
4:51 PM,14.0,6.1,71,30.42,-9999.0,Calm,Calm,-,N/A,,Unknown,0,2012-12-09 23:51:00
5:51 PM,14.0,8.1,77,30.41,-9999.0,Calm,Calm,-,N/A,,Unknown,0,2012-12-10 00:51:00
6:51 PM,14.0,10.0,84,30.43,-9999.0,Calm,Calm,-,N/A,,Unknown,0,2012-12-10 01:51:00
7:51 PM,15.1,10.0,80,30.45,-9999.0,Calm,Calm,-,N/A,,Unknown,0,2012-12-10 02:51:00
8:51 PM,16.0,10.0,77,30.41,-9999.0,SSE,3.5,-,N/A,,Unknown,150,2012-12-10 03:51:00
9:51 PM,16.0,10.9,81,30.36,-9999.0,Calm,Calm,-,N/A,,Unknown,0,2012-12-10 04:51:00
10:51 PM,16.0,10.9,81,30.31,-9999.0,Calm,Calm,-,N/A,,Unknown,0,2012-12-10 05:51:00
11:51 PM,15.1,10.9,84,30.29,-9999.0,SSE,3.5,-,N/A,,Unknown,150,2012-12-10 06:51:00